吉利星座2组03星 (GEESAT-2 03)

导读

GEESAT 2-03是中国于2024年2月2日发射的低地球轨道卫星,隶属于吉利旗下Geespace公司GEESATCOM全球低轨卫星通信星座项目。该卫星旨在提供全球覆盖的卫星通信服务,属于项目第一阶段部署卫星,将与同星座卫星协同,为全球用户提供中低速数据通信,助力中国商业航天全球通信服务网络建设,推动卫星通信在各领域的应用拓展。

Basic Information
目录编号:
58907
目录名称:
GEESAT 2-03
国际标识:
2024-023C
轨道中心:
EARTH
卫星名称:
吉利星座2组03星
卫星全名:
吉利星座2组03星 (GEESAT-2 03)
卫星状态:
在轨 (已飞行956 天)
发射日期:
2024-02-02 UTC
国别 :
中国 (CN)
星等 :
--
This satellite is enrolled in the Space Conjunction Data Service (SCDS) and the current flight risk assessment level is: No High Risk
Orbit Information
数据来源 国际轨道数据 AOE轨道数据
星历时间 2026-09-15T21:07:26+0800
10小时前
查看轨道信息
2026-09-10T07:00:00+0800
6天前
查看轨道信息
半长轴 6953.078km 6953.124km
偏心率 0.0006031 0.0005935
轨道倾角 50.001° 50.000°
近地点辐角 25.970° 4.954°
升交点赤经 256.543° 283.002°
平近点角 334.155° 87.900°
近地点 570.747km 570.86km
远地点 579.135km 579.114km
周期 96.167分钟 96.168分钟
每日圈数 14.973977 14.973829
Detailed Information
平衡模式:
三轴稳定
覆盖范围:
全球
运营商:
时空道宇科技有限公司
运营商所在国:
中国
制造商(研发单位):
时空道宇科技有限公司
制造商所在国:
中国
使用方式:
暂无
Satellite Introduction
吉利星座(GeeSAT)也称“吉利未来出行星座”,由吉利旗下时空道宇自主研发,布局硬核科技生态,赋能智慧出行、无人系统、智慧城市等领域,并将全面提升吉利控股旗下极氪、领克、远程新能源商用车等品牌的用户智能出行体验。通过“吉利未来出行星座”建设,吉利控股集团将构建天地一体化高精时空信息系统。该卫星仍在工作。
2D Orbit Map
3D Orbit Map
Orbit Altitude Analysis Chart
Orbit Inclination Analysis Chart
Orbit Comprehensive Analysis Chart
View Comprehensive Chart
Conjunction Data List
Event ID Objects TCA Miss Dist (km) Collision Risk Probability Collision Risk Index (CRI) Action
CDM_260918-015405-890706-720621
2026-09-18T
01:54:49+0000
1.403 km
极远距离
7.670754E-6 低风险 0.53
CDM_260917-234500-900305-890721
2026-09-17T
23:45:50+0000
2.923 km
极远距离
1.355319E-6 低风险 0.38
Miss Distance Evolution Trend with All Objects Subscribe to Flight Safety Assessment
Collision Probability Evolution Trend with All Objects Subscribe to Flight Safety Assessment